User: anonymous   Login
Location: Donald C. Martin Observatory
(38.3885°N, 82.3916°W)
Time: 14:02:15
(UTC-04:00)
Language:

Cosmos 1484 Rocket - Orbit

View from above orbital plane
View from above orbital plane
View from above satellite
View from above satellite

Ground track
Ground track

The orbit data is extracted from the following two-line orbital elements,

1 14208U 83075B   16207.84851303  .00000498  00000-0  33906-4 0  9992
2 14208  97.3534 225.6832 0039985 174.3602 185.8087 15.10000075798250
Epoch (UTC): 25 July 2016 20:21:51
Eccentricity: 0.0039985
inclination: 97.3534°
perigee height: 508 km
apogee height: 564 km
right ascension of ascending node: 225.6832°
argument of perigee: 174.3602°
revolutions per day: 15.10000075
mean anomaly at epoch: 185.8087°
orbit number at epoch: 79825

The dashed part of the orbit path shows where the satellite is in the earth's shadow,  

DLR